Weather in Khoy

Russia / Chechen Republic     42°45′35″N   46°08′03″E
temp.,
°C
wind,
m/s
gust,
m/s
humid.,
%
clouds,
%
prec.,
mm/h
press.,
hPa
HPBL,
m
9 march, tue
tue900:00−8w1287100 0.6 1018137
03:00−9w118358 0.6 101849
06:00−9wnw117940 0.0 101838
09:00−6w006949 0.0 1017375
12:00−3ese015742 0.1 1016717
15:00−2nne226651 0.3 1016878
18:00−5n1193100 1.1 1018111
21:00−7ssw118897 1.4 102087
10 march, wed
wed1000:00−7w127999 0.4 1021112
03:00−9w127695 0.7 1022107
06:00−10w127662 0.1 102394
09:00−7wnw116752 0.3 1024433
12:00−5ene115842 0.2 1022746
15:00−4ne126461 0.8 1022782
18:00−7nne2289100 0.5 1022142
21:00−9ese129099 0.9 1023192
11 march, thu
thu1100:00−9e129081 0.1 1022162
03:00−10ese128990 0.1 1021138
06:00−10ese128998 0.1 1021172
09:00−8e238499 0.3 1020352
12:00−6ene2283100 0.7 1019446
15:00−7nne2283100 1.6 1018431
18:00−10ne2290100 0.8 1019209
21:00−12e2490100 1.3 1019267
12 march, fri
fri1200:00−13e239095 0.4 1019269
03:00−13ene229197 0.8 1019227
06:00−14ene2290100 0.6 1021262
09:00−12ene2282100 0.9 1023502
12:00−11ene2283100 0.6 1023520
15:00−12nne3387100 1.8 1024413
18:00−14nne1192100 0.9 1027220
21:00−15ese1192100 1.4 1030186
13 march, sat
sat1300:00−16s119498 0.3 1031104
03:00−17wsw119199 0.3 103284
06:00−18wsw118418 0.0 103359
09:00−12sw01699 0.0 1034251
12:00−8s12649 0.0 1033579
15:00−6w026119 0.1 1031553
18:00−11se128712 0.0 103259
21:00−12sw128018 0.0 103456